DKH691 ZSHC-ZSPD

Flight info

Callsign DKH691
Flight time N/A
Altitude 8900
Route DSH W505 SUPAR B221 AND G204 DADAT
Aircraft DA42/L-SDFGRY/C

Departure

Time 2026-04-27 05:37
Airport Hangzhou Xiaoshan International Airport (ZSHC)

Arrival

Time N/A
Airport Shanghai Pudong International Airport (ZSPD)
Time Latitude Longitude Altitude Speed Heading
2026-04-27 05:24 30.23211 120.43040 30 ft 0 kts 245°
2026-04-27 05:27 30.23210 120.43037 29 ft 0 kts 244°
2026-04-27 05:28 30.23203 120.43021 26 ft 4 kts 242°
2026-04-27 05:28 30.23183 120.42994 26 ft 5 kts 205°
2026-04-27 05:28 30.23152 120.43004 26 ft 6 kts 124°
2026-04-27 05:28 30.23147 120.43056 26 ft 8 kts 72°
2026-04-27 05:29 30.23173 120.43119 26 ft 10 kts 62°
2026-04-27 05:29 30.23196 120.43170 26 ft 8 kts 65°
2026-04-27 05:29 30.23224 120.43232 27 ft 10 kts 64°
2026-04-27 05:29 30.23257 120.43308 27 ft 12 kts 62°
2026-04-27 05:30 30.23297 120.43398 27 ft 13 kts 64°
2026-04-27 05:30 30.23342 120.43498 26 ft 14 kts 63°
2026-04-27 05:30 30.23374 120.43574 26 ft 10 kts 64°
2026-04-27 05:30 30.23408 120.43649 26 ft 11 kts 62°
2026-04-27 05:31 30.23423 120.43726 26 ft 9 kts 128°
2026-04-27 05:31 30.23391 120.43788 26 ft 10 kts 77°
2026-04-27 05:31 30.23404 120.43820 23 ft 5 kts 65°
2026-04-27 05:31 30.23423 120.43864 35 ft 7 kts 61°
2026-04-27 05:32 30.23451 120.43926 26 ft 10 kts 65°
2026-04-27 05:32 30.23486 120.44003 26 ft 12 kts 62°
2026-04-27 05:32 30.23477 120.44074 27 ft 6 kts 141°
2026-04-27 05:32 30.23452 120.44130 26 ft 11 kts 77°
2026-04-27 05:33 30.23485 120.44212 26 ft 12 kts 62°
2026-04-27 05:33 30.23526 120.44304 27 ft 13 kts 63°
2026-04-27 05:33 30.23569 120.44401 27 ft 14 kts 63°
2026-04-27 05:33 30.23614 120.44502 27 ft 14 kts 65°
2026-04-27 05:34 30.23660 120.44608 27 ft 15 kts 63°
2026-04-27 05:34 30.23710 120.44716 27 ft 16 kts 63°
2026-04-27 05:34 30.23759 120.44831 26 ft 14 kts 63°
2026-04-27 05:34 30.23798 120.44919 26 ft 15 kts 63°
2026-04-27 05:35 30.23816 120.45007 26 ft 10 kts 121°
2026-04-27 05:35 30.23756 120.45049 25 ft 11 kts 152°
2026-04-27 05:35 30.23678 120.45063 24 ft 12 kts 209°
2026-04-27 05:35 30.23662 120.45045 24 ft 0 kts 239°
2026-04-27 05:36 30.23654 120.45027 24 ft 19 kts 242°
2026-04-27 05:36 30.23491 120.44658 27 ft 79 kts 242°
2026-04-27 05:36 30.23192 120.44016 181 ft 100 kts 242°
2026-04-27 05:37 30.22860 120.43285 436 ft 105 kts 240°
2026-04-27 05:37 30.22352 120.42660 758 ft 109 kts 216°
2026-04-27 05:37 30.21686 120.42161 942 ft 123 kts 212°
2026-04-27 05:37 30.20810 120.41981 1117 ft 134 kts 182°
2026-04-27 05:38 30.19888 120.42272 1277 ft 146 kts 144°
2026-04-27 05:38 30.19261 120.43222 1468 ft 153 kts 121°
2026-04-27 05:38 30.18761 120.44311 1639 ft 155 kts 119°
2026-04-27 05:38 30.18426 120.45050 1734 ft 153 kts 121°
2026-04-27 05:39 30.17935 120.46159 1920 ft 152 kts 119°
2026-04-27 05:39 30.17480 120.47262 2083 ft 152 kts 115°
2026-04-27 05:39 30.16962 120.48307 2256 ft 153 kts 131°
2026-04-27 05:39 30.16163 120.49121 2430 ft 153 kts 146°
2026-04-27 05:40 30.15290 120.49828 2593 ft 154 kts 143°
2026-04-27 05:40 30.14625 120.50794 2756 ft 156 kts 117°
2026-04-27 05:40 30.14208 120.51944 2944 ft 155 kts 114°
2026-04-27 05:40 30.13801 120.53107 3107 ft 157 kts 114°
2026-04-27 05:41 30.13400 120.54271 3284 ft 155 kts 114°
2026-04-27 05:41 30.12998 120.55412 3451 ft 156 kts 114°
2026-04-27 05:41 30.12588 120.56576 3611 ft 156 kts 114°
2026-04-27 05:41 30.12185 120.57737 3794 ft 156 kts 114°
2026-04-27 05:42 30.11767 120.58908 3966 ft 159 kts 114°
2026-04-27 05:42 30.11350 120.60097 4130 ft 160 kts 114°
2026-04-27 05:42 30.10939 120.61287 4307 ft 160 kts 114°
2026-04-27 05:42 30.10522 120.62472 4479 ft 159 kts 114°
2026-04-27 05:43 30.10103 120.63650 4657 ft 158 kts 114°
2026-04-27 05:43 30.09697 120.64818 4825 ft 159 kts 114°
2026-04-27 05:43 30.09284 120.65995 4993 ft 158 kts 113°
2026-04-27 05:43 30.08873 120.67173 5161 ft 158 kts 114°
2026-04-27 05:44 30.08456 120.68353 5327 ft 159 kts 114°
2026-04-27 05:44 30.08039 120.69538 5503 ft 160 kts 114°
2026-04-27 05:44 30.07619 120.70728 5678 ft 160 kts 114°
2026-04-27 05:44 30.07201 120.71916 5847 ft 159 kts 114°
2026-04-27 05:45 30.06783 120.73108 6027 ft 161 kts 114°
2026-04-27 05:45 30.06360 120.74311 6200 ft 162 kts 114°
2026-04-27 05:45 30.05940 120.75502 6372 ft 163 kts 113°
2026-04-27 05:45 30.05513 120.76713 6533 ft 163 kts 113°
2026-04-27 05:46 30.05086 120.77924 6704 ft 163 kts 113°
2026-04-27 05:46 30.04659 120.79137 6868 ft 164 kts 113°
2026-04-27 05:46 30.04230 120.80355 7033 ft 163 kts 113°
2026-04-27 05:46 30.03802 120.81569 7201 ft 163 kts 113°
2026-04-27 05:47 30.03374 120.82779 7369 ft 163 kts 113°
2026-04-27 05:47 30.02944 120.83994 7535 ft 163 kts 113°
2026-04-27 05:47 30.02649 120.85255 7703 ft 164 kts 93°
2026-04-27 05:47 30.02846 120.86520 7870 ft 164 kts 65°
2026-04-27 05:48 30.03459 120.87618 8051 ft 163 kts 52°
2026-04-27 05:48 30.04137 120.88672 8223 ft 164 kts 52°
2026-04-27 05:48 30.04820 120.89726 8396 ft 164 kts 52°
2026-04-27 05:48 30.05500 120.90783 8572 ft 164 kts 52°
2026-04-27 05:49 30.06181 120.91843 8748 ft 165 kts 52°
2026-04-27 05:49 30.06867 120.92914 8892 ft 167 kts 52°
2026-04-27 05:49 30.07581 120.94027 8893 ft 177 kts 52°
2026-04-27 05:49 30.08313 120.95170 8893 ft 182 kts 52°
2026-04-27 05:50 30.09071 120.96355 8886 ft 185 kts 52°
2026-04-27 05:50 30.09847 120.97558 8887 ft 187 kts 51°
2026-04-27 05:50 30.10629 120.98770 8887 ft 189 kts 52°
2026-04-27 05:50 30.11416 120.99989 8886 ft 190 kts 52°
2026-04-27 05:51 30.12205 121.01217 8887 ft 190 kts 52°
2026-04-27 05:51 30.12994 121.02445 8888 ft 190 kts 52°
2026-04-27 05:51 30.13777 121.03654 8889 ft 191 kts 51°
2026-04-27 05:51 30.14569 121.04882 8890 ft 191 kts 52°
2026-04-27 05:52 30.15358 121.06110 8885 ft 191 kts 52°
2026-04-27 05:52 30.16149 121.07339 8886 ft 190 kts 52°
2026-04-27 05:52 30.16936 121.08565 8884 ft 190 kts 52°
2026-04-27 05:52 30.17724 121.09791 8887 ft 190 kts 52°
2026-04-27 05:53 30.18514 121.11019 8886 ft 190 kts 52°
2026-04-27 05:53 30.19302 121.12246 8887 ft 190 kts 52°
2026-04-27 05:53 30.20093 121.13476 8886 ft 190 kts 52°
2026-04-27 05:53 30.20871 121.14689 8892 ft 191 kts 51°
2026-04-27 05:54 30.21663 121.15922 8892 ft 191 kts 51°
2026-04-27 05:54 30.22453 121.17153 8892 ft 191 kts 51°
2026-04-27 05:54 30.23245 121.18387 8892 ft 191 kts 51°
2026-04-27 05:54 30.24034 121.19618 8893 ft 191 kts 51°
2026-04-27 05:55 30.24826 121.20848 8894 ft 190 kts 50°
2026-04-27 05:55 30.25804 121.21844 8891 ft 187 kts 27°
2026-04-27 05:55 30.27019 121.22335 8891 ft 184 kts
2026-04-27 05:55 30.28289 121.22514 8896 ft 184 kts
2026-04-27 05:56 30.29543 121.22672 8896 ft 184 kts
2026-04-27 05:56 30.30816 121.22832 8897 ft 184 kts
2026-04-27 05:56 30.32090 121.22996 8896 ft 184 kts
2026-04-27 05:56 30.33366 121.23161 8894 ft 184 kts
2026-04-27 05:57 30.34637 121.23325 8895 ft 184 kts
2026-04-27 05:57 30.35911 121.23489 8894 ft 184 kts
2026-04-27 05:57 30.37185 121.23654 8897 ft 184 kts
2026-04-27 05:57 30.38458 121.23819 8896 ft 184 kts
2026-04-27 05:58 30.39730 121.23983 8899 ft 184 kts
2026-04-27 05:58 30.40985 121.24146 8899 ft 184 kts
2026-04-27 05:58 30.42256 121.24312 8899 ft 184 kts
2026-04-27 05:58 30.43528 121.24476 8903 ft 184 kts
2026-04-27 05:59 30.44789 121.24711 8898 ft 186 kts 13°
2026-04-27 05:59 30.45945 121.25397 8898 ft 188 kts 30°
2026-04-27 05:59 30.47035 121.26242 8904 ft 188 kts 31°
2026-04-27 05:59 30.48120 121.27095 8904 ft 188 kts 31°
2026-04-27 06:00 30.50277 121.28783 8904 ft 188 kts 31°
2026-04-27 06:00 30.51365 121.29632 8904 ft 188 kts 31°
2026-04-27 06:00 30.52449 121.30479 8903 ft 188 kts 31°
2026-04-27 06:01 30.53536 121.31328 8904 ft 188 kts 31°
2026-04-27 06:01 30.54622 121.32177 8904 ft 188 kts 31°
2026-04-27 06:01 30.55710 121.33027 8904 ft 188 kts 31°
2026-04-27 06:01 30.56794 121.33875 8904 ft 188 kts 31°
2026-04-27 06:02 30.57881 121.34725 8904 ft 188 kts 31°
2026-04-27 06:02 30.58952 121.35563 8904 ft 188 kts 31°
2026-04-27 06:02 30.60036 121.36411 8904 ft 188 kts 31°
2026-04-27 06:02 30.61123 121.37262 8904 ft 188 kts 31°
2026-04-27 06:03 30.62208 121.38111 8901 ft 188 kts 31°
2026-04-27 06:03 30.63294 121.38963 8900 ft 188 kts 30°
2026-04-27 06:03 30.64380 121.39812 8900 ft 188 kts 30°
2026-04-27 06:03 30.65469 121.40665 8900 ft 189 kts 30°
2026-04-27 06:04 30.66556 121.41517 8900 ft 189 kts 30°
2026-04-27 06:04 30.67646 121.42371 8901 ft 189 kts 30°
2026-04-27 06:04 30.68734 121.43225 8900 ft 189 kts 30°
2026-04-27 06:04 30.69807 121.44067 8900 ft 189 kts 30°
2026-04-27 06:05 30.70895 121.44920 8901 ft 189 kts 30°
2026-04-27 06:05 30.71982 121.45774 8900 ft 188 kts 30°
2026-04-27 06:05 30.73069 121.46627 8901 ft 189 kts 30°
2026-04-27 06:05 30.74156 121.47481 8900 ft 189 kts 30°
2026-04-27 06:06 30.75245 121.48335 8901 ft 189 kts 30°
2026-04-27 06:06 30.76332 121.49190 8901 ft 189 kts 30°
2026-04-27 06:06 30.77421 121.50046 8901 ft 189 kts 30°
2026-04-27 06:06 30.78493 121.50889 8896 ft 189 kts 30°
2026-04-27 06:07 30.79580 121.51743 8897 ft 188 kts 30°
2026-04-27 06:07 30.80667 121.52598 8902 ft 189 kts 30°
2026-04-27 06:07 30.81754 121.53454 8900 ft 189 kts 31°
2026-04-27 06:07 30.82843 121.54311 8898 ft 189 kts 30°
2026-04-27 06:08 30.83932 121.55169 8891 ft 189 kts 30°
2026-04-27 06:08 30.85018 121.56024 8894 ft 189 kts 30°
2026-04-27 06:08 30.86103 121.56878 8893 ft 188 kts 30°
2026-04-27 06:08 30.87192 121.57736 8895 ft 189 kts 30°
2026-04-27 06:09 30.88263 121.58580 8892 ft 189 kts 30°
2026-04-27 06:09 30.89353 121.59439 8891 ft 189 kts 30°
2026-04-27 06:09 30.90444 121.60300 8891 ft 189 kts 30°
2026-04-27 06:09 30.91531 121.61158 8890 ft 189 kts 30°
2026-04-27 06:10 30.92615 121.62013 8895 ft 188 kts 30°
2026-04-27 06:10 30.93701 121.62869 8894 ft 188 kts 30°
2026-04-27 06:10 30.94785 121.63725 8889 ft 188 kts 30°
2026-04-27 06:10 30.95853 121.64570 8889 ft 189 kts 30°
2026-04-27 06:11 30.96940 121.65428 8890 ft 189 kts 30°
2026-04-27 06:11 30.98026 121.66286 8889 ft 188 kts 30°
2026-04-27 06:11 30.99111 121.67143 8889 ft 189 kts 30°
2026-04-27 06:11 31.00196 121.68001 8890 ft 189 kts 30°
2026-04-27 06:12 31.01285 121.68862 8892 ft 189 kts 30°
2026-04-27 06:12 31.02374 121.69724 8889 ft 190 kts 29°
2026-04-27 06:12 31.03464 121.70586 8890 ft 189 kts 29°
2026-04-27 06:12 31.04538 121.71435 8895 ft 189 kts 30°
2026-04-27 06:13 31.05628 121.72299 8888 ft 190 kts 30°
2026-04-27 06:13 31.06718 121.73163 8889 ft 189 kts 30°
2026-04-27 06:13 31.07808 121.74025 8890 ft 190 kts 30°
2026-04-27 06:13 31.08899 121.74890 8889 ft 189 kts 30°
2026-04-27 06:14 31.09987 121.75752 8888 ft 189 kts 30°
2026-04-27 06:14 31.11075 121.76615 8886 ft 189 kts 30°
2026-04-27 06:14 31.12167 121.77481 8888 ft 189 kts 30°
2026-04-27 06:14 31.13254 121.78343 8887 ft 189 kts 29°
2026-04-27 06:15 31.14330 121.79197 8887 ft 190 kts 30°
2026-04-27 06:15 31.15421 121.80063 8889 ft 189 kts 30°
2026-04-27 06:15 31.16508 121.80927 8893 ft 189 kts 30°
2026-04-27 06:15 31.17596 121.81791 8889 ft 189 kts 30°
2026-04-27 06:16 31.18683 121.82654 8888 ft 189 kts 30°
2026-04-27 06:16 31.19770 121.83517 8883 ft 189 kts 30°
2026-04-27 06:16 31.20854 121.84378 8887 ft 189 kts 30°
2026-04-27 06:16 31.21939 121.85242 8894 ft 189 kts 29°
2026-04-27 06:17 31.23024 121.86104 8897 ft 189 kts 29°
2026-04-27 06:17 31.24110 121.86968 8897 ft 189 kts 30°
2026-04-27 06:17 31.25180 121.87819 8906 ft 189 kts 30°
2026-04-27 06:17 31.26265 121.88683 8901 ft 189 kts 30°
2026-04-27 06:18 31.27349 121.89546 8902 ft 189 kts 30°
2026-04-27 06:18 31.28434 121.90410 8903 ft 189 kts 30°
2026-04-27 06:18 31.29519 121.91275 8901 ft 189 kts 30°
2026-04-27 06:18 31.30603 121.92138 8902 ft 189 kts 30°
2026-04-27 06:19 31.31689 121.93004 8900 ft 189 kts 30°
2026-04-27 06:19 31.32774 121.93869 8903 ft 189 kts 30°
2026-04-27 06:19 31.33860 121.94735 8902 ft 189 kts 30°
2026-04-27 06:19 31.34932 121.95590 8899 ft 189 kts 30°
2026-04-27 06:20 31.36016 121.96456 8927 ft 189 kts 30°
2026-04-27 06:20 31.37100 121.97320 8927 ft 188 kts 30°
2026-04-27 06:20 31.38182 121.98184 8928 ft 188 kts 30°
2026-04-27 06:20 31.39266 121.99050 8924 ft 189 kts 30°
2026-04-27 06:21 31.40351 121.99917 8927 ft 189 kts 30°
2026-04-27 06:21 31.41436 122.00784 8928 ft 189 kts 29°
2026-04-27 06:21 31.42520 122.01651 8929 ft 189 kts 29°
2026-04-27 06:21 31.43605 122.02518 8927 ft 189 kts 29°
2026-04-27 06:22 31.44675 122.03374 8928 ft 189 kts 29°
2026-04-27 06:22 31.45758 122.04240 8928 ft 189 kts 29°
2026-04-27 06:22 31.46843 122.05108 8928 ft 189 kts 29°
2026-04-27 06:22 31.47926 122.05975 8926 ft 189 kts 29°
2026-04-27 06:23 31.49010 122.06843 8925 ft 189 kts 29°
2026-04-27 06:23 31.50093 122.07711 8923 ft 189 kts 29°
2026-04-27 06:23 31.51178 122.08579 8925 ft 189 kts 29°
2026-04-27 06:23 31.52263 122.09449 8926 ft 189 kts 29°
2026-04-27 06:24 31.53349 122.10319 8927 ft 189 kts 29°
2026-04-27 06:24 31.54422 122.11180 8928 ft 189 kts 30°
2026-04-27 06:24 31.55506 122.12050 8926 ft 189 kts 30°
2026-04-27 06:24 31.56591 122.12921 8925 ft 189 kts 30°
2026-04-27 06:25 31.57675 122.13791 8925 ft 189 kts 29°
2026-04-27 06:25 31.58760 122.14661 8922 ft 189 kts 29°
2026-04-27 06:25 31.59842 122.15530 8925 ft 189 kts 29°
2026-04-27 06:25 31.60926 122.16398 8926 ft 189 kts 29°
2026-04-27 06:26 31.62012 122.17273 8929 ft 189 kts 29°
2026-04-27 06:26 31.63097 122.18147 8932 ft 189 kts 28°
2026-04-27 06:26 31.64169 122.19009 8931 ft 189 kts 28°
2026-04-27 06:26 31.65254 122.19881 8929 ft 189 kts 28°
2026-04-27 06:27 31.66342 122.20756 8926 ft 189 kts 28°
2026-04-27 06:27 31.67427 122.21629 8929 ft 189 kts 29°
2026-04-27 06:27 31.68512 122.22503 8929 ft 189 kts 29°
2026-04-27 06:27 31.69595 122.23374 8928 ft 189 kts 28°
2026-04-27 06:28 31.70678 122.24246 8929 ft 189 kts 29°
2026-04-27 06:28 31.71759 122.25117 8928 ft 188 kts 28°
2026-04-27 06:28 31.72825 122.25976 8932 ft 188 kts 28°
2026-04-27 06:28 31.73906 122.26847 8932 ft 189 kts 28°
2026-04-27 06:29 31.74989 122.27720 8927 ft 189 kts 28°
2026-04-27 06:29 31.76073 122.28594 8928 ft 189 kts 28°
2026-04-27 06:29 31.77158 122.29469 8929 ft 189 kts 28°
2026-04-27 06:29 31.78240 122.30342 8930 ft 189 kts 29°
2026-04-27 06:30 31.79324 122.31219 8938 ft 189 kts 29°
2026-04-27 06:30 31.80408 122.32095 8930 ft 189 kts 28°
2026-04-27 06:30 31.81496 122.32970 8930 ft 189 kts 28°
2026-04-27 06:30 31.82567 122.33835 8930 ft 189 kts 28°
2026-04-27 06:31 31.83653 122.34713 8928 ft 189 kts 28°
2026-04-27 06:31 31.84737 122.35590 8927 ft 189 kts 29°
2026-04-27 06:31 31.85821 122.36466 8927 ft 189 kts 29°
2026-04-27 06:31 31.86904 122.37342 8928 ft 189 kts 29°
2026-04-27 06:32 31.87987 122.38218 8930 ft 189 kts 29°
2026-04-27 06:32 31.89070 122.39095 8930 ft 189 kts 29°
2026-04-27 06:32 31.90154 122.39972 8930 ft 189 kts 29°
2026-04-27 06:32 31.91238 122.40850 8932 ft 189 kts 29°
2026-04-27 06:33 31.92306 122.41715 8930 ft 189 kts 28°
2026-04-27 06:33 31.93390 122.42593 8930 ft 189 kts 29°
2026-04-27 06:33 31.94472 122.43470 8927 ft 189 kts 29°
2026-04-27 06:33 31.95554 122.44348 8927 ft 189 kts 29°
2026-04-27 06:34 31.96636 122.45225 8932 ft 189 kts 29°
2026-04-27 06:34 31.97716 122.46101 8932 ft 189 kts 29°
2026-04-27 06:34 31.98798 122.46978 8932 ft 189 kts 29°
2026-04-27 06:34 31.99876 122.47854 8932 ft 188 kts 29°
2026-04-27 06:35 32.00957 122.48731 8930 ft 188 kts 29°
2026-04-27 06:35 32.02022 122.49597 8930 ft 189 kts 29°
2026-04-27 06:35 32.03103 122.50475 8930 ft 189 kts 29°
2026-04-27 06:35 32.04184 122.51352 8933 ft 189 kts 29°
2026-04-27 06:36 32.05266 122.52232 8933 ft 189 kts 29°
2026-04-27 06:36 32.06348 122.53112 8932 ft 189 kts 29°
2026-04-27 06:36 32.07428 122.53990 8932 ft 189 kts 29°
2026-04-27 06:36 32.08508 122.54869 8933 ft 189 kts 29°
2026-04-27 06:37 32.09574 122.55737 8932 ft 189 kts 29°
2026-04-27 06:37 32.10652 122.56614 8932 ft 189 kts 29°
2026-04-27 06:37 32.11732 122.57493 8933 ft 189 kts 29°
2026-04-27 06:37 32.12812 122.58373 8933 ft 189 kts 29°
2026-04-27 06:38 32.13893 122.59253 8927 ft 189 kts 29°
2026-04-27 06:38 32.14971 122.60132 8927 ft 188 kts 29°
2026-04-27 06:38 32.16048 122.61010 8927 ft 188 kts 29°
2026-04-27 06:38 32.17128 122.61891 8931 ft 189 kts 28°
2026-04-27 06:39 32.18208 122.62771 8935 ft 189 kts 29°
2026-04-27 06:39 32.19275 122.63643 8935 ft 189 kts 29°
2026-04-27 06:39 32.20359 122.64527 8935 ft 189 kts 29°
2026-04-27 06:39 32.21440 122.65410 8935 ft 189 kts 29°
2026-04-27 06:40 32.22524 122.66295 8931 ft 190 kts 29°
2026-04-27 06:40 32.23608 122.67181 8930 ft 189 kts 29°
2026-04-27 06:40 32.24693 122.68067 8931 ft 189 kts 29°
2026-04-27 06:40 32.25776 122.68952 8930 ft 189 kts 29°
2026-04-27 06:41 32.26859 122.69837 8934 ft 189 kts 29°
2026-04-27 06:41 32.27942 122.70723 8934 ft 189 kts 29°
2026-04-27 06:41 32.29023 122.71607 8934 ft 189 kts 29°
2026-04-27 06:41 32.30088 122.72479 8934 ft 189 kts 29°
2026-04-27 06:42 32.31169 122.73364 8932 ft 189 kts 29°
2026-04-27 06:42 32.32248 122.74247 8932 ft 189 kts 29°
2026-04-27 06:42 32.33329 122.75133 8933 ft 189 kts 29°
2026-04-27 06:42 32.34409 122.76018 8933 ft 189 kts 29°
2026-04-27 06:43 32.35493 122.76906 8942 ft 189 kts 29°
2026-04-27 06:43 32.36576 122.77794 8942 ft 189 kts 29°
2026-04-27 06:43 32.37659 122.78682 8942 ft 190 kts 29°
2026-04-27 06:43 32.38730 122.79560 8942 ft 190 kts 29°
2026-04-27 06:44 32.39815 122.80451 8932 ft 190 kts 29°
2026-04-27 06:44 32.40903 122.81343 8933 ft 190 kts 29°
2026-04-27 06:44 32.41987 122.82234 8933 ft 190 kts 29°
2026-04-27 06:44 32.43072 122.83125 8933 ft 190 kts 29°
2026-04-27 06:45 32.44155 122.84014 8939 ft 189 kts 29°
2026-04-27 06:45 32.45239 122.84905 8940 ft 189 kts 29°
2026-04-27 06:45 32.46321 122.85795 8940 ft 190 kts 29°
2026-04-27 06:45 32.47405 122.86686 8939 ft 189 kts 29°
2026-04-27 06:46 32.48473 122.87564 8937 ft 189 kts 29°
2026-04-27 06:46 32.49555 122.88454 8937 ft 189 kts 29°
2026-04-27 06:46 32.50639 122.89346 8936 ft 190 kts 29°
2026-04-27 06:46 32.51722 122.90238 8936 ft 190 kts 29°
2026-04-27 06:47 32.52806 122.91130 8935 ft 190 kts 29°
2026-04-27 06:47 32.53891 122.92024 8940 ft 190 kts 29°
2026-04-27 06:47 32.54981 122.92922 8938 ft 191 kts 29°
2026-04-27 06:47 32.56070 122.93820 8938 ft 191 kts 29°
2026-04-27 06:48 32.57159 122.94718 8937 ft 191 kts 28°
2026-04-27 06:48 32.58235 122.95605 8937 ft 191 kts 29°
2026-04-27 06:48 32.59326 122.96505 8937 ft 191 kts 29°
2026-04-27 06:48 32.60415 122.97404 8937 ft 191 kts 29°
2026-04-27 06:49 32.61507 122.98305 8940 ft 191 kts 29°
2026-04-27 06:49 32.62596 122.99204 8940 ft 191 kts 29°
2026-04-27 06:49 32.63686 123.00105 8940 ft 191 kts 29°
2026-04-27 06:49 32.64778 123.01007 8940 ft 191 kts 29°
2026-04-27 06:50 32.65866 123.01906 8937 ft 191 kts 29°
2026-04-27 06:50 32.66943 123.02796 8937 ft 191 kts 29°
2026-04-27 06:50 32.68029 123.03695 8937 ft 191 kts 29°
2026-04-27 06:50 32.69121 123.04597 8938 ft 191 kts 29°
2026-04-27 06:51 32.70211 123.05499 8940 ft 191 kts 29°
2026-04-27 06:51 32.71301 123.06401 8940 ft 191 kts 29°
2026-04-27 06:51 32.72389 123.07303 8940 ft 191 kts 28°
2026-04-27 06:51 32.73482 123.08207 8938 ft 191 kts 28°
2026-04-27 06:52 32.74573 123.09111 8941 ft 191 kts 28°
2026-04-27 06:52 32.75665 123.10016 8941 ft 191 kts 28°
2026-04-27 06:52 32.76741 123.10909 8941 ft 191 kts 28°
2026-04-27 06:52 32.77831 123.11812 8941 ft 191 kts 28°
2026-04-27 06:53 32.78923 123.12718 8938 ft 191 kts 28°
2026-04-27 06:53 32.80013 123.13622 8938 ft 191 kts 28°
2026-04-27 06:53 32.81105 123.14529 8937 ft 191 kts 28°
2026-04-27 06:53 32.82196 123.15435 8938 ft 191 kts 28°
2026-04-27 06:54 32.83289 123.16342 8937 ft 192 kts 29°
2026-04-27 06:54 32.84383 123.17250 8937 ft 192 kts 29°
2026-04-27 06:54 32.85465 123.18150 8937 ft 192 kts 29°
2026-04-27 06:54 32.86560 123.19060 8937 ft 192 kts 29°
2026-04-27 06:55 32.87655 123.19971 8938 ft 192 kts 29°
2026-04-27 06:55 32.88753 123.20884 8938 ft 192 kts 29°
2026-04-27 06:55 32.89849 123.21796 8937 ft 193 kts 29°
2026-04-27 06:55 32.90949 123.22711 8939 ft 193 kts 28°
2026-04-27 06:56 32.92045 123.23624 8936 ft 193 kts 28°
2026-04-27 06:56 32.93145 123.24539 8936 ft 193 kts 28°
2026-04-27 06:56 32.94243 123.25454 8935 ft 193 kts 28°
2026-04-27 06:56 32.95323 123.26355 8936 ft 192 kts 28°
2026-04-27 06:57 32.96421 123.27270 8944 ft 192 kts 28°
2026-04-27 06:57 32.97516 123.28183 8938 ft 192 kts 28°
2026-04-27 06:57 32.98610 123.29095 8938 ft 192 kts 28°
2026-04-27 06:57 32.99703 123.30007 8938 ft 192 kts 28°
2026-04-27 06:58 33.00796 123.30919 8936 ft 192 kts 28°
2026-04-27 06:58 33.02981 123.32743 8937 ft 192 kts 28°
2026-04-27 06:58 33.04062 123.33646 8936 ft 192 kts 28°
2026-04-27 06:59 33.05157 123.34561 8936 ft 192 kts 28°
2026-04-27 06:59 33.06253 123.35477 8936 ft 192 kts 28°
2026-04-27 06:59 33.07347 123.36392 8936 ft 192 kts 28°
2026-04-27 06:59 33.08444 123.37310 8938 ft 193 kts 28°
2026-04-27 07:00 33.09547 123.38234 8933 ft 194 kts 29°
2026-04-27 07:00 33.10652 123.39160 8933 ft 194 kts 28°
2026-04-27 07:00 33.11760 123.40082 8931 ft 194 kts 28°
2026-04-27 07:00 33.12852 123.40997 8931 ft 194 kts 28°
2026-04-27 07:01 33.13957 123.41924 8931 ft 195 kts 28°
2026-04-27 07:01 33.15065 123.42852 8931 ft 195 kts 28°
2026-04-27 07:01 33.16173 123.43781 8931 ft 195 kts 28°
2026-04-27 07:01 33.17281 123.44711 8931 ft 195 kts 28°
2026-04-27 07:02 33.18388 123.45639 8931 ft 194 kts 28°
2026-04-27 07:02 33.19493 123.46566 8931 ft 194 kts 28°
2026-04-27 07:02 33.20598 123.47493 8931 ft 194 kts 28°
2026-04-27 07:02 33.21703 123.48421 8934 ft 194 kts 28°
2026-04-27 07:03 33.22809 123.49350 8934 ft 194 kts 28°
2026-04-27 07:03 33.23915 123.50278 8934 ft 194 kts 28°
2026-04-27 07:03 33.25005 123.51195 8934 ft 194 kts 28°
2026-04-27 07:03 33.26109 123.52122 8942 ft 195 kts 29°
2026-04-27 07:04 33.27220 123.53057 8937 ft 195 kts 29°
2026-04-27 07:04 33.28331 123.53992 8943 ft 196 kts 29°
2026-04-27 07:04 33.29444 123.54928 8942 ft 196 kts 29°
2026-04-27 07:04 33.30558 123.55866 8939 ft 196 kts 29°
2026-04-27 07:05 33.31673 123.56804 8937 ft 196 kts 29°
2026-04-27 07:05 33.32786 123.57742 8937 ft 196 kts 29°
2026-04-27 07:05 33.33884 123.58666 8939 ft 196 kts 29°
2026-04-27 07:05 33.35000 123.59607 8941 ft 196 kts 29°
2026-04-27 07:06 33.36115 123.60547 8937 ft 196 kts 29°
2026-04-27 07:06 33.37233 123.61490 8934 ft 196 kts 29°
2026-04-27 07:06 33.38346 123.62429 8937 ft 196 kts 29°
2026-04-27 07:06 33.39463 123.63371 8934 ft 196 kts 29°
2026-04-27 07:07 33.40578 123.64312 8936 ft 196 kts 29°
2026-04-27 07:07 33.41690 123.65251 8935 ft 196 kts 29°
2026-04-27 07:07 33.42806 123.66194 8937 ft 196 kts 29°
2026-04-27 07:07 33.43907 123.67124 8938 ft 197 kts 29°
2026-04-27 07:08 33.45031 123.68073 8935 ft 198 kts 29°
2026-04-27 07:08 33.46158 123.69026 8935 ft 198 kts 29°
2026-04-27 07:08 33.47287 123.69982 8931 ft 199 kts 29°
2026-04-27 07:08 33.48417 123.70937 8933 ft 199 kts 29°
2026-04-27 07:09 33.49546 123.71893 8936 ft 199 kts 29°
2026-04-27 07:09 33.50675 123.72848 8929 ft 199 kts 29°
2026-04-27 07:09 33.51803 123.73804 8934 ft 199 kts 29°
2026-04-27 07:09 33.52933 123.74760 8931 ft 199 kts 29°
2026-04-27 07:10 33.54048 123.75705 8929 ft 199 kts 29°
2026-04-27 07:10 33.55181 123.76666 8924 ft 199 kts 29°
2026-04-27 07:10 33.56309 123.77622 8926 ft 199 kts 29°
2026-04-27 07:10 33.57438 123.78580 8922 ft 199 kts 29°
2026-04-27 07:11 33.58567 123.79538 8933 ft 199 kts 29°
2026-04-27 07:11 33.59696 123.80496 8931 ft 199 kts 29°
2026-04-27 07:11 33.60825 123.81455 8930 ft 199 kts 29°
2026-04-27 07:11 33.61940 123.82401 8945 ft 199 kts 30°
2026-04-27 07:12 33.63072 123.83363 8938 ft 200 kts 30°
2026-04-27 07:12 33.64205 123.84327 8940 ft 200 kts 30°
2026-04-27 07:12 33.65341 123.85292 8936 ft 200 kts 30°
2026-04-27 07:12 33.66475 123.86256 8939 ft 200 kts 30°
2026-04-27 07:13 33.67607 123.87219 8939 ft 200 kts 30°
2026-04-27 07:13 33.68741 123.88184 8932 ft 200 kts 30°
2026-04-27 07:13 33.69874 123.89149 8935 ft 200 kts 30°
2026-04-27 07:13 33.71005 123.90112 8950 ft 200 kts 30°
2026-04-27 07:14 33.72137 123.91077 8943 ft 200 kts 30°
2026-04-27 07:14 33.73256 123.92030 8943 ft 200 kts 30°
2026-04-27 07:14 33.74391 123.92997 8945 ft 200 kts 30°
2026-04-27 07:14 33.75527 123.93966 8951 ft 200 kts 30°
2026-04-27 07:15 33.76662 123.94934 8942 ft 200 kts 30°
2026-04-27 07:15 33.77797 123.95903 8937 ft 200 kts 30°
2026-04-27 07:15 33.78935 123.96874 8936 ft 201 kts 30°
2026-04-27 07:15 33.80073 123.97845 8936 ft 201 kts 30°
2026-04-27 07:16 33.81212 123.98818 8933 ft 201 kts 30°
2026-04-27 07:16 33.82350 123.99791 8931 ft 201 kts 30°
2026-04-27 07:16 33.83489 124.00764 8942 ft 201 kts 30°
2026-04-27 07:16 33.84610 124.01722 8934 ft 201 kts 30°
2026-04-27 07:17 33.85749 124.02696 8937 ft 201 kts 30°
2026-04-27 07:17 33.86889 124.03671 8942 ft 201 kts 30°
2026-04-27 07:17 33.88028 124.04646 8946 ft 201 kts 30°
2026-04-27 07:17 33.89167 124.05621 8934 ft 201 kts 30°
2026-04-27 07:18 33.90307 124.06597 8938 ft 201 kts 30°
2026-04-27 07:18 33.91448 124.07574 8939 ft 201 kts 30°
2026-04-27 07:18 33.92589 124.08552 8941 ft 201 kts 30°
2026-04-27 07:18 33.93713 124.09516 8941 ft 201 kts 30°
2026-04-27 07:19 33.94852 124.10493 8935 ft 201 kts 30°
2026-04-27 07:19 33.95988 124.11467 8950 ft 201 kts 30°
2026-04-27 07:19 33.97127 124.12444 8949 ft 201 kts 30°
2026-04-27 07:19 33.98264 124.13420 8939 ft 201 kts 30°
2026-04-27 07:20 33.99401 124.14396 8944 ft 200 kts 30°
2026-04-27 07:20 34.00534 124.15369 8946 ft 200 kts 30°
2026-04-27 07:20 34.01669 124.16345 8943 ft 201 kts 30°
2026-04-27 07:20 34.02791 124.17309 8944 ft 201 kts 30°
2026-04-27 07:21 34.03930 124.18288 8940 ft 201 kts 30°
2026-04-27 07:21 34.05069 124.19269 8940 ft 201 kts 30°
2026-04-27 07:21 34.06210 124.20250 8952 ft 201 kts 30°
2026-04-27 07:21 34.07351 124.21232 8945 ft 202 kts 30°
2026-04-27 07:22 34.08495 124.22216 8934 ft 202 kts 31°
2026-04-27 07:22 34.09637 124.23200 8940 ft 202 kts 31°
2026-04-27 07:22 34.10778 124.24183 8933 ft 201 kts 31°
2026-04-27 07:22 34.11901 124.25152 8937 ft 201 kts 31°
2026-04-27 07:23 34.13038 124.26131 8939 ft 201 kts 30°
2026-04-27 07:23 34.14172 124.27109 8939 ft 200 kts 30°
2026-04-27 07:23 34.15306 124.28088 8942 ft 200 kts 30°
2026-04-27 07:23 34.16438 124.29064 8940 ft 200 kts 30°
2026-04-27 07:24 34.17572 124.30043 8940 ft 201 kts 31°
2026-04-27 07:24 34.18709 124.31026 8940 ft 201 kts 30°
2026-04-27 07:24 34.19844 124.32007 8940 ft 201 kts 30°
2026-04-27 07:24 34.20983 124.32990 8944 ft 201 kts 30°
2026-04-27 07:25 34.22107 124.33962 8948 ft 201 kts 30°
2026-04-27 07:25 34.23245 124.34947 8939 ft 202 kts 30°
2026-04-27 07:25 34.24385 124.35933 8938 ft 201 kts 30°
2026-04-27 07:25 34.25524 124.36918 8938 ft 201 kts 30°
2026-04-27 07:26 34.26657 124.37899 8938 ft 200 kts 30°
2026-04-27 07:26 34.27790 124.38880 8938 ft 200 kts 30°
2026-04-27 07:26 34.28922 124.39860 8938 ft 200 kts 31°
2026-04-27 07:26 34.30053 124.40840 8946 ft 200 kts 30°
2026-04-27 07:27 34.31189 124.41825 8936 ft 201 kts 30°
2026-04-27 07:27 34.32310 124.42797 8939 ft 201 kts 30°
2026-04-27 07:27 34.33449 124.43785 8939 ft 201 kts 30°
2026-04-27 07:27 34.34586 124.44772 8940 ft 202 kts 30°
2026-04-27 07:28 34.35728 124.45762 8939 ft 202 kts 30°
2026-04-27 07:28 34.36867 124.46752 8939 ft 202 kts 30°
2026-04-27 07:28 34.38007 124.47742 8934 ft 202 kts 30°
2026-04-27 07:28 34.39147 124.48732 8934 ft 201 kts 30°
2026-04-27 07:29 34.40281 124.49718 8932 ft 201 kts 30°
2026-04-27 07:29 34.41401 124.50691 8932 ft 201 kts 30°
2026-04-27 07:29 34.42535 124.51678 8931 ft 201 kts 30°
2026-04-27 07:29 34.43669 124.52665 8931 ft 201 kts 30°
2026-04-27 07:30 34.44801 124.53650 8933 ft 200 kts 30°
2026-04-27 07:30 34.45933 124.54635 8933 ft 200 kts 30°
2026-04-27 07:30 34.47066 124.55622 8947 ft 201 kts 30°
2026-04-27 07:30 34.48201 124.56611 8946 ft 201 kts 30°
2026-04-27 07:31 34.49337 124.57600 8944 ft 201 kts 30°
2026-04-27 07:31 34.50471 124.58590 8944 ft 201 kts 30°
2026-04-27 07:31 34.51589 124.59565 8944 ft 201 kts 30°
2026-04-27 07:31 34.52725 124.60555 8944 ft 201 kts 30°
2026-04-27 07:32 34.53860 124.61546 8942 ft 201 kts 30°
2026-04-27 07:32 34.54995 124.62537 8941 ft 201 kts 30°
2026-04-27 07:32 34.56132 124.63530 8944 ft 201 kts 30°
2026-04-27 07:32 34.57269 124.64524 8944 ft 201 kts 30°
2026-04-27 07:33 34.58409 124.65519 8944 ft 201 kts 30°
2026-04-27 07:33 34.59545 124.66513 8944 ft 201 kts 30°
2026-04-27 07:33 34.60682 124.67507 8944 ft 201 kts 30°
2026-04-27 07:33 34.61802 124.68487 8943 ft 201 kts 30°
2026-04-27 07:34 34.62938 124.69481 8943 ft 201 kts 30°
2026-04-27 07:34 34.64076 124.70476 8937 ft 202 kts 30°
2026-04-27 07:34 34.65215 124.71475 8938 ft 202 kts 30°
2026-04-27 07:34 34.66353 124.72471 8938 ft 202 kts 30°
2026-04-27 07:35 34.67494 124.73471 8936 ft 202 kts 30°
2026-04-27 07:35 34.68631 124.74468 8931 ft 202 kts 30°
2026-04-27 07:35 34.69767 124.75464 8931 ft 201 kts 30°
2026-04-27 07:35 34.70902 124.76460 8931 ft 201 kts 30°
2026-04-27 07:36 34.72023 124.77444 8928 ft 201 kts 30°
2026-04-27 07:36 34.73159 124.78441 8928 ft 201 kts 30°
2026-04-27 07:36 34.74295 124.79439 8928 ft 201 kts 30°
2026-04-27 07:36 34.75430 124.80436 8928 ft 201 kts 30°
2026-04-27 07:37 34.76562 124.81431 8927 ft 201 kts 30°
2026-04-27 07:37 34.77697 124.82428 8927 ft 201 kts 30°
2026-04-27 07:37 34.78831 124.83425 8927 ft 201 kts 30°
2026-04-27 07:37 34.79964 124.84422 8938 ft 201 kts 30°
2026-04-27 07:38 34.81084 124.85407 8940 ft 202 kts 30°
2026-04-27 07:38 34.82222 124.86409 8940 ft 202 kts 30°
2026-04-27 07:38 34.83359 124.87411 8934 ft 202 kts 30°
2026-04-27 07:38 34.84496 124.88412 8934 ft 202 kts 31°
2026-04-27 07:39 34.85632 124.89413 8934 ft 201 kts 31°
2026-04-27 07:39 34.86765 124.90412 8934 ft 201 kts 31°
2026-04-27 07:39 34.87900 124.91413 8934 ft 201 kts 31°
2026-04-27 07:39 34.89034 124.92413 8934 ft 201 kts 31°
2026-04-27 07:40 34.90171 124.93416 8937 ft 201 kts 31°
2026-04-27 07:40 34.91289 124.94403 8940 ft 201 kts 31°
2026-04-27 07:40 34.92425 124.95406 8940 ft 202 kts 31°
2026-04-27 07:40 34.93562 124.96410 8941 ft 202 kts 31°
2026-04-27 07:41 34.94699 124.97415 8940 ft 202 kts 30°
2026-04-27 07:41 34.95838 124.98422 8940 ft 202 kts 31°
2026-04-27 07:41 34.96979 124.99431 8921 ft 203 kts 31°
2026-04-27 07:41 34.98122 125.00442 8926 ft 203 kts 31°
2026-04-27 07:42 34.99261 125.01450 8926 ft 203 kts 31°
2026-04-27 07:42 35.00386 125.02446 8927 ft 203 kts 31°
2026-04-27 07:42 35.01527 125.03457 8926 ft 203 kts 31°
2026-04-27 07:42 35.02667 125.04466 8927 ft 202 kts 31°
2026-04-27 07:43 35.03807 125.05476 8929 ft 202 kts 31°
2026-04-27 07:43 35.04946 125.06486 8930 ft 202 kts 31°
2026-04-27 07:43 35.06084 125.07495 8926 ft 202 kts 31°
2026-04-27 07:43 35.06836 125.08162 8931 ft 202 kts 31°
2026-04-27 07:44 35.08361 125.09515 8927 ft 202 kts 31°
2026-04-27 07:44 35.09116 125.10186 8924 ft 202 kts 31°
2026-04-27 07:44 35.10622 125.11523 8923 ft 202 kts 31°
2026-04-27 07:44 35.11759 125.12533 8924 ft 202 kts 31°
2026-04-27 07:45 35.12899 125.13545 8937 ft 203 kts 31°
2026-04-27 07:45 35.14039 125.14559 8939 ft 203 kts 31°
2026-04-27 07:45 35.14795 125.15232 8939 ft 203 kts 31°
2026-04-27 07:45 35.15938 125.16248 8938 ft 203 kts 31°
2026-04-27 07:46 35.17079 125.17263 8941 ft 203 kts 31°
2026-04-27 07:46 35.18220 125.18279 8943 ft 203 kts 31°
2026-04-27 07:46 35.19734 125.19627 8941 ft 203 kts 31°
2026-04-27 07:46 35.20874 125.20643 8939 ft 203 kts 31°
2026-04-27 07:47 35.22015 125.21660 8936 ft 203 kts 31°
2026-04-27 07:47 35.22788 125.22349 8938 ft 203 kts 31°
2026-04-27 07:47 35.23914 125.23353 8935 ft 203 kts 31°
2026-04-27 07:47 35.25057 125.24372 8939 ft 203 kts 31°
2026-04-27 07:48 35.26196 125.25389 8935 ft 203 kts 31°
2026-04-27 07:48 35.27337 125.26407 8928 ft 203 kts 31°
2026-04-27 07:48 35.28478 125.27426 8938 ft 203 kts 31°
2026-04-27 07:48 35.29621 125.28447 8932 ft 204 kts 31°
2026-04-27 07:49 35.31140 125.29805 8932 ft 204 kts 31°
2026-04-27 07:49 35.31916 125.30498 8932 ft 204 kts 31°
2026-04-27 07:49 35.33048 125.31511 8937 ft 204 kts 31°
2026-04-27 07:49 35.34195 125.32537 8933 ft 204 kts 31°
2026-04-27 07:50 35.35343 125.33564 8938 ft 204 kts 31°
2026-04-27 07:50 35.36488 125.34589 8931 ft 204 kts 31°
2026-04-27 07:50 35.37632 125.35614 8931 ft 204 kts 31°
2026-04-27 07:50 35.38775 125.36637 8935 ft 203 kts 31°
2026-04-27 07:51 35.40287 125.37992 8932 ft 204 kts 31°
2026-04-27 07:51 35.41060 125.38685 8929 ft 204 kts 31°
2026-04-27 07:51 35.42573 125.40042 8931 ft 204 kts 31°
2026-04-27 07:51 35.43333 125.40724 8929 ft 204 kts 31°
2026-04-27 07:52 35.44478 125.41752 8935 ft 204 kts 31°
2026-04-27 07:52 35.45625 125.42782 8929 ft 204 kts 31°
2026-04-27 07:52 35.46773 125.43813 8929 ft 204 kts 31°
2026-04-27 07:52 35.47919 125.44843 8933 ft 204 kts 31°
2026-04-27 07:53 35.49063 125.45871 8929 ft 204 kts 31°
2026-04-27 07:53 35.50208 125.46900 8930 ft 204 kts 31°
2026-04-27 07:53 35.51354 125.47931 8931 ft 204 kts 31°
2026-04-27 07:53 35.52499 125.48961 8928 ft 204 kts 31°
2026-04-27 07:54 35.53628 125.49976 8932 ft 204 kts 31°
2026-04-27 07:54 35.54772 125.51006 8915 ft 203 kts 31°
2026-04-27 07:54 35.55911 125.52033 8920 ft 203 kts 31°
2026-04-27 07:54 35.57050 125.53060 8920 ft 203 kts 31°
2026-04-27 07:55 35.58191 125.54088 8915 ft 203 kts 31°
2026-04-27 07:55 35.59333 125.55117 8915 ft 203 kts 31°
2026-04-27 07:55 35.60472 125.56145 8935 ft 204 kts 31°
2026-04-27 07:55 35.61618 125.57179 8937 ft 204 kts 31°
2026-04-27 07:56 35.62747 125.58198 8939 ft 205 kts 31°
2026-04-27 07:56 35.63895 125.59235 8937 ft 205 kts 31°
2026-04-27 07:56 35.65045 125.60273 8934 ft 205 kts 31°
2026-04-27 07:56 35.66195 125.61313 8938 ft 205 kts 31°
2026-04-27 07:57 35.67344 125.62351 8931 ft 205 kts 31°
2026-04-27 07:57 35.68495 125.63392 8931 ft 205 kts 31°
2026-04-27 07:57 35.69642 125.64430 8932 ft 205 kts 31°
2026-04-27 07:57 35.70789 125.65468 8934 ft 205 kts 31°
2026-04-27 07:58 35.71936 125.66506 8931 ft 205 kts 31°
2026-04-27 07:58 35.73070 125.67533 8935 ft 205 kts 31°
2026-04-27 07:58 35.74218 125.68573 8934 ft 205 kts 31°
2026-04-27 07:58 35.75366 125.69614 8931 ft 205 kts 31°
2026-04-27 07:59 35.76518 125.70658 8927 ft 206 kts 31°
2026-04-27 07:59 35.78821 125.72747 8925 ft 206 kts 31°
2026-04-27 07:59 35.79974 125.73794 8925 ft 206 kts 31°
2026-04-27 08:00 35.81128 125.74841 8924 ft 206 kts 31°
2026-04-27 08:00 35.82279 125.75887 8915 ft 206 kts 31°
2026-04-27 08:00 35.83416 125.76920 8916 ft 206 kts 31°
2026-04-27 08:00 35.84566 125.77964 8916 ft 205 kts 31°
2026-04-27 08:01 35.85716 125.79011 8917 ft 205 kts 31°
2026-04-27 08:01 35.86866 125.80057 8917 ft 205 kts 31°
2026-04-27 08:01 35.88014 125.81102 8917 ft 205 kts 31°
2026-04-27 08:01 35.89161 125.82146 8917 ft 205 kts 31°
2026-04-27 08:02 35.90308 125.83190 8916 ft 205 kts 31°
2026-04-27 08:02 35.91458 125.84238 8929 ft 205 kts 31°
2026-04-27 08:02 35.92607 125.85285 8926 ft 205 kts 31°
2026-04-27 08:02 35.93755 125.86332 8929 ft 206 kts 31°
2026-04-27 08:03 35.94891 125.87367 8929 ft 206 kts 31°
2026-04-27 08:03 35.96042 125.88418 8929 ft 206 kts 31°
2026-04-27 08:03 35.97192 125.89467 8929 ft 206 kts 31°
2026-04-27 08:03 35.98344 125.90519 8929 ft 206 kts 31°
2026-04-27 08:04 35.99496 125.91571 8929 ft 206 kts 31°
2026-04-27 08:04 36.00649 125.92625 8929 ft 206 kts 31°
2026-04-27 08:04 36.01803 125.93679 8928 ft 206 kts 31°
2026-04-27 08:04 36.02956 125.94733 8928 ft 206 kts 31°
2026-04-27 08:05 36.04093 125.95773 8926 ft 206 kts 31°
2026-04-27 08:05 36.05246 125.96828 8926 ft 206 kts 31°
2026-04-27 08:05 36.06396 125.97881 8926 ft 206 kts 31°
2026-04-27 08:05 36.07551 125.98939 8923 ft 207 kts 31°
2026-04-27 08:06 36.08709 125.99999 8923 ft 207 kts 31°
2026-04-27 08:06 36.09864 126.01058 8920 ft 207 kts 31°
2026-04-27 08:06 36.11019 126.02117 8921 ft 207 kts 31°
2026-04-27 08:06 36.12175 126.03177 8921 ft 207 kts 31°
2026-04-27 08:07 36.13314 126.04222 8920 ft 207 kts 31°
2026-04-27 08:07 36.14469 126.05282 8921 ft 207 kts 31°
2026-04-27 08:07 36.15624 126.06342 8926 ft 207 kts 31°
2026-04-27 08:07 36.16778 126.07402 8926 ft 207 kts 31°
2026-04-27 08:08 36.17931 126.08462 8925 ft 207 kts 31°
2026-04-27 08:08 36.19034 126.09457 8919 ft 181 kts 28°
2026-04-27 08:08 36.19977 126.10318 8909 ft 156 kts 30°
2026-04-27 08:08 36.20792 126.11072 8912 ft 136 kts 31°
2026-04-27 08:09 36.21503 126.11727 8908 ft 120 kts 23°
2026-04-27 08:09 36.22172 126.12185 8766 ft 105 kts 348°
2026-04-27 08:09 36.22442 126.11731 8353 ft 92 kts 213°
2026-04-27 08:09 36.22256 126.12502 7795 ft 161 kts 14°
2026-04-27 08:10 36.22206 126.12320 7090 ft 179 kts 116°
2026-04-27 08:10 36.22554 126.12427 6468 ft 149 kts 192°
2026-04-27 08:10 36.22785 126.12877 5862 ft 141 kts 258°
2026-04-27 08:10 36.22678 126.13385 5479 ft 160 kts 344°
2026-04-27 08:11 36.22493 126.13260 5072 ft 162 kts 93°
2026-04-27 08:11 36.22964 126.13280 4653 ft 110 kts 216°
2026-04-27 08:11 36.22921 126.13973 4313 ft 144 kts 352°
2026-04-27 08:11 36.22895 126.13577 3977 ft 108 kts 159°
2026-04-27 08:12 36.22922 126.14440 3803 ft 119 kts 43°
2026-04-27 08:12 36.23628 126.14795 3573 ft 102 kts 358°
2026-04-27 08:12 36.24350 126.14964 3239 ft 111 kts 18°
2026-04-27 08:12 36.24847 126.15653 2882 ft 111 kts 94°
2026-04-27 08:13 36.24496 126.16172 2455 ft 77 kts 211°
2026-04-27 08:13 36.24706 126.15666 2008 ft 121 kts
2026-04-27 08:13 36.24918 126.16398 1546 ft 96 kts 167°
2026-04-27 08:13 36.24833 126.15937 1110 ft 116 kts 337°
2026-04-27 08:14 36.25175 126.16532 714 ft 97 kts 153°
2026-04-27 08:14 36.25034 126.16110 72 ft 121 kts 345°
2026-04-27 08:14 36.25295 126.16116 0 ft 0 kts 348°
2026-04-27 08:33 36.25294 126.16116 0 ft 0 kts 346°